Cedar City, UT

1:31 AM MST on February 14, 2016 (GMT -0700)
Cedar City Regional

Weather History for KCDC - September, 2013

Change the Weather History Date:

Tuesday, September 17, 2013

  Actual Average Record
Temperature  
Mean Temperature 68 °F 61 °F  
Max Temperature 80 °F 78 °F 92 °F (1956)
Min Temperature 55 °F 44 °F 27 °F (1965)
Degree Days  
Heating Degree Days 0 5  
Month to date heating degree days 27 43  
Since 1 July heating degree days 30 52  
Cooling Degree Days 3 1  
Month to date cooling degree days 35 33  
Year to date cooling degree days 667 582  
Growing Degree Days 20 (Base 50)    
Moisture  
Dew Point 44 °F    
Average Humidity 48    
Maximum Humidity 72    
Minimum Humidity 23    
Precipitation  
Precipitation 0.00 in 0.02 in 0.48 in (1961)
Month to date precipitation 1.75 0.35  
Year to date precipitation 13.00 7.89  
Sea Level Pressure  
Sea Level Pressure 29.73 in    
Wind  
Wind Speed 11 mph (SSW)    
Max Wind Speed 30 mph    
Max Gust Speed 43 mph    
Visibility 10 miles    
Events      
T = Trace of Precipitation, MM = Missing Value Source: NWS Daily Summary

Daily Weather History Graph

Daily Weather History Graph

Search for Another Location

Airport or City:

Trip Planner

Search our weather history database for the weather conditions in past years. The results will help you decide how hot, cold, wet, or windy it might be!

Date:

Astronomy

Sep. 17, 2013 Rise Set
Actual Time 7:16 AM MDT 7:36 PM MDT
Civil Twilight 6:49 AM MDT 8:02 PM MDT
Nautical Twilight 6:19 AM MDT 8:33 PM MDT
Astronomical Twilight 5:47 AM MDT 9:04 PM MDT
Moon 6:25 PM MDT (9/17) 5:16 AM MDT (9/17)
Length of Visible Light 13h 12m
Length of Day
12h 20m
Waxing Gibbous, 96% of the Moon is Illuminated
Sep 17
Waxing Gibbous
Sep 19
Full
Sep 26
Last Quarter
Oct 4
New
Oct 11
First Quarter

Hourly Weather History & Observations

Time (MDT) Temp. Dew Point Humidity Pressure Visibility Wind Dir Wind Speed Gust Speed Precip Events Conditions
12:53 AM 62.1 °F 48.0 °F 60% 29.84 in 10.0 mi Calm Calm - N/A   Partly Cloudy
1:53 AM 66.0 °F 46.9 °F 50% 29.82 in 10.0 mi South 5.8 mph - N/A   Mostly Cloudy
2:53 AM 60.1 °F 48.0 °F 64% 29.83 in 10.0 mi Calm Calm - N/A   Partly Cloudy
3:53 AM 61.0 °F 48.0 °F 62% 29.81 in 10.0 mi SE 5.8 mph - N/A   Clear
4:53 AM 60.1 °F 48.0 °F 64% 29.81 in 10.0 mi Calm Calm - N/A   Clear
5:53 AM 59.0 °F 48.0 °F 67% 29.80 in 10.0 mi SSW 3.5 mph - N/A   Clear
6:53 AM 59.0 °F 48.9 °F 69% 29.81 in 10.0 mi South 4.6 mph - N/A   Scattered Clouds
7:53 AM 61.0 °F 48.9 °F 64% 29.83 in 10.0 mi SSW 5.8 mph - N/A   Clear
8:53 AM 68.0 °F 50.0 °F 52% 29.80 in 10.0 mi SW 9.2 mph - N/A   Partly Cloudy
9:53 AM 71.1 °F 52.0 °F 51% 29.81 in 10.0 mi SW 10.4 mph - N/A   Mostly Cloudy
10:53 AM 73.9 °F 50.0 °F 43% 29.76 in 10.0 mi SW 12.7 mph - N/A   Scattered Clouds
11:53 AM 77.0 °F 43.0 °F 30% 29.77 in 10.0 mi South 16.1 mph 32.2 mph N/A   Overcast
12:53 PM 77.0 °F 43.0 °F 30% 29.75 in 10.0 mi SSW 16.1 mph 32.2 mph N/A   Mostly Cloudy
1:53 PM 79.0 °F 41.0 °F 26% 29.71 in 9.0 mi SW 23.0 mph 34.5 mph N/A   Partly Cloudy
2:53 PM 79.0 °F 41.0 °F 26% 29.70 in 10.0 mi SSW 23.0 mph 35.7 mph N/A   Clear
3:53 PM 79.0 °F 37.9 °F 23% 29.66 in 10.0 mi SSW 26.5 mph 42.6 mph N/A   Clear
4:53 PM 80.1 °F 39.9 °F 24% 29.64 in 10.0 mi SW 24.2 mph 34.5 mph N/A   Clear
5:53 PM 78.1 °F 37.9 °F 24% 29.62 in 10.0 mi SSW 25.3 mph 39.1 mph N/A   Clear
6:53 PM 75.9 °F 39.9 °F 27% 29.63 in 10.0 mi SSW 23.0 mph 35.7 mph N/A   Clear
7:53 PM 72.0 °F 41.0 °F 33% 29.65 in 10.0 mi SSW 15.0 mph - N/A   Clear
8:53 PM 73.0 °F 39.0 °F 29% 29.62 in 10.0 mi SSW 15.0 mph 29.9 mph N/A   Clear
9:53 PM 71.1 °F 39.0 °F 31% 29.64 in 10.0 mi SSW 17.3 mph 24.2 mph N/A   Clear
10:53 PM 66.0 °F 41.0 °F 40% 29.66 in 10.0 mi SW 10.4 mph - N/A   Clear
11:53 PM 64.9 °F 41.0 °F 42% 29.65 in 10.0 mi SSW 10.4 mph - N/A   Clear